Lexington Weather

Lexington, Massachusetts, USA

70°F
8/17/2022 7:08pm 
  • Lexington Conditions: Overcast
  • Temperature: 69.6°F / 20.9°CColder 0.7°F than last hour.
  • Dew Point: 56.8°FDecreased 2.6°Fsince last hour.
  • Relative Humidity: 64%Decreased 4.0% since last hour.
  • Wind: Calm, 10-min avg: Calm, gust: None
  • Barometer: 29.85 in Steady
  • Visibility: 10 miles
  • Rain Today: 0.00 in
  •   

Regional Weather Roundup
for Boston, MA

        
000
ASUS41 KBOX 111310
RWRBOX

REGIONAL WEATHER ROUNDUP
NATIONAL WEATHER SERVICE BOSTON/NORTON MA
900 AM EDT THU AUG 11 2022

NOTE:  "FAIR" INDICATES FEW OR NO CLOUDS BELOW 12,000 FEET WITH NO 
SIGNIFICANT WEATHER AND/OR OBSTRUCTIONS TO VISIBILITY.

MAZALL-111400-
EASTERN MASSACHUSETTS
  
CITY           SKY/WX    TMP DP  RH WIND       PRES   REMARKS
BOSTON         CLOUDY    69  65  86 SE6       29.92F                  
BEVERLY        CLOUDY    71  66  84 S5        29.92S                  
LAWRENCE       CLOUDY    72  65  78 CALM      29.94S                  
BEDFORD        CLOUDY    71  66  84 CALM      29.91S                  
BLUE HILL      NOT AVBL                                               
NORWOOD        CLOUDY    74  66  76 VRB3      29.91F                  
MARSHFIELD     CLOUDY    73  68  83 CALM      29.91F                  
PLYMOUTH       CLOUDY    73  68  84 CALM      29.92F                  
TAUNTON        CLOUDY    75  68  78 VRB5      29.92S                  
NEW BEDFORD    PTSUNNY   75  69  81 S7        29.91F                  
$$

MAZALL-111400-
CAPE COD AND THE ISLANDS
  
CITY           SKY/WX    TMP DP  RH WIND       PRES   REMARKS
FALMOUTH       PTSUNNY   75  68  78 S6        29.92F                  
HYANNIS        CLOUDY    75  67  76 S6        29.91F                  
CHATHAM        CLOUDY    73  65  75 E6        29.93F                  
NANTUCKET      CLOUDY    72  68  87 SE9       29.93F                  
MARTHAS VNYRD  CLOUDY    72  69  90 S7        29.92F                  
$$
 
MAZALL-111400-
CENTRAL AND WESTERN MASSACHUSETTS
  
CITY           SKY/WX    TMP DP  RH WIND       PRES   REMARKS
WORCESTER      PTSUNNY   70  63  78 W8        29.95S                  
FITCHBURG      NOT AVBL                                               
ORANGE         PTSUNNY   67  63  87 CALM      29.96R                  
SPRINGFIELD    PTSUNNY   68  64  85 N3        29.92R                  
WESTFIELD      PTSUNNY   70  61  73 CALM      29.94S                  
NORTH ADAMS    MOSUNNY   67  62  84 CALM      29.95F                  
PITTSFIELD     CLOUDY    66  62  87 CALM      29.96S                  
$$
 
RIZALL-111400-
RHODE ISLAND
  
CITY           SKY/WX    TMP DP  RH WIND       PRES   REMARKS
PROVIDENCE     CLOUDY    74  69  85 VRB5      29.92F                  
NEWPORT        CLOUDY    72  69  90 S7        29.92S                  
BLOCK ISLAND   PTSUNNY   73  69  87 SE8         N/A                   
SMITHFIELD     CLOUDY    71  68  90 W3        29.94S                  
WESTERLY       CLOUDY    74  70  87 SE7       29.92S                  
$$
 
CTZALL-111400-
CONNECTICUT
  
CITY           SKY/WX    TMP DP  RH WIND       PRES   REMARKS
BRADLEY INTL   PTSUNNY   71  61  70 CALM      29.93S                  
HARTFORD       PTSUNNY   75  65  70 NE5       29.92F                  
BRIDGEPORT     LGT RAIN  75  72  90 CALM      29.91F                  
DANBURY        CLOUDY    74  68  81 CALM      29.94F                  
GROTON         CLOUDY    75  70  84 S5        29.91S                  
NEW HAVEN      CLOUDY    78  72  81 N5        29.91F                  
CHESTER        PTSUNNY   75  72  88 CALM      29.93F                  
MERIDEN        CLOUDY    73  65  75 W3        29.92F                  
WILLIMANTIC    PTSUNNY   74  68  81 SW3       29.93S                  
OXFORD         CLOUDY    70  66  88 E3        29.95F                  
$$

MEZ002-015-021-024-NHZ003-005-008-011-012-014-VTZ005-008-111400-
NORTHERN NEW ENGLAND
  
CITY           SKY/WX    TMP DP  RH WIND       PRES   REMARKS
PORTLAND ME    CLOUDY    67  61  81 CALM      29.93S                  
BANGOR ME      CLOUDY    68  62  81 S6        29.92F                  
CONCORD NH     PTSUNNY   68  62  81 CALM      29.92F                  
MANCHESTER NH  CLOUDY    70  63  78 CALM      29.91F                  
NASHUA NH      CLOUDY    71  69  93 CALM      29.93S                  
PORTSMOUTH NH  PTSUNNY   70  63  80 CALM      29.92F                  
JAFFREY NH     PTSUNNY   71  61  70 S6        29.95S                  
KEENE NH       PTSUNNY   70  64  81 S5          N/A                   
BURLINGTON VT  MOSUNNY   71  62  73 SW7       29.91S                  
MT. WASHINGTON FOG       50  50 100 SE2         N/A  VSB 1/4          
$$

NYZ052-076-111400-
EASTERN NEW YORK
  
CITY           SKY/WX    TMP DP  RH WIND       PRES   REMARKS
ALBANY         PTSUNNY   71  60  68 CALM      29.94F                  
NEW YORK CITY  PTSUNNY   75  71  87 E6        29.91R                  
$$
 
ANZALL-111400-
MARINE OBSERVATIONS
  
STATION/POSITION TIME  TEMP    WIND        PRES    VSBY  WAVE
                       AIR SEA DIR/SP/G                  HT/PER
                 (UTC) (F)     (DEG/KT/KT) (MB)    (MI)  (FT/S)
BOSTON BUOY      NOT AVBL
BUZZARDS BAY     NOT AVBL
NANTUCKET SOUND  NOT AVBL
MASS BAY-STELLWA NOT AVBL
ISLE OF SHOALS   NOT AVBL
S OF BLOCK IS    NOT AVBL
$$

......................KEY.........................
  SKY/WX - SKY CONDITION/PRESENT WEATHER
  TMP    - TEMPERATURE IN FAHRENHEIT
  DWPT   - DEWPOINT IN FAHRENHEIT
  RH     - RELATIVE HUMIDITY IN PERCENT
  WIND   - DIRECTION AND SPEED IN MPH
  PRES   - MEAN SEA LEVEL PRESSURE IN INCHES OF HG
  WCI    - WIND CHILL INDEX
  VSB    - VISIBILITY IN MILES
  HX     - HEAT INDEX
  TC     - TEMPERATURE IN CELSIUS
  VRB    - VARIABLE WIND DIRECTION
  N/A    - NOT AVAILABLE
  
      

Other recent Regional Weather Roundups

Wed Aug 17, 6:10pm

Wed Aug 17, 5:10pm

Wed Aug 17, 4:10pm

Wed Aug 17, 3:10pm

Wed Aug 17, 2:10pm

Wed Aug 17, 1:10pm

Wed Aug 17, 12:10pm

Wed Aug 17, 11:10am

Wed Aug 17, 10:10am

Wed Aug 17, 9:10am

Wed Aug 17, 8:10am

Wed Aug 17, 7:10am

Wed Aug 17, 6:10am

Wed Aug 17, 5:10am

Wed Aug 17, 4:10am

Wed Aug 17, 3:10am

Wed Aug 17, 2:10am

Wed Aug 17, 1:10am

Wed Aug 17, 12:10am

Tue Aug 16, 11:10pm

Tue Aug 16, 10:10pm

Tue Aug 16, 9:10pm

Tue Aug 16, 8:10pm

Tue Aug 16, 7:10pm

Tue Aug 16, 6:10pm

Tue Aug 16, 5:10pm

Tue Aug 16, 4:10pm

Tue Aug 16, 3:10pm

Tue Aug 16, 2:10pm

Tue Aug 16, 1:10pm

Tue Aug 16, 12:10pm

Tue Aug 16, 11:10am

Tue Aug 16, 10:10am

Tue Aug 16, 9:10am

Tue Aug 16, 8:10am

Tue Aug 16, 7:10am

Tue Aug 16, 6:10am

Tue Aug 16, 5:10am

Tue Aug 16, 4:10am

Tue Aug 16, 3:10am

Tue Aug 16, 2:10am

Tue Aug 16, 1:10am

Tue Aug 16, 12:10am

Mon Aug 15, 11:10pm

Mon Aug 15, 10:10pm

Mon Aug 15, 9:10pm

Mon Aug 15, 8:10pm

Mon Aug 15, 7:10pm

Mon Aug 15, 6:10pm

Mon Aug 15, 5:10pm

Mon Aug 15, 4:10pm

Mon Aug 15, 3:10pm

Mon Aug 15, 2:10pm

Mon Aug 15, 1:10pm

Mon Aug 15, 12:10pm

Mon Aug 15, 11:10am

Mon Aug 15, 10:10am

Mon Aug 15, 9:10am

Mon Aug 15, 8:10am

Mon Aug 15, 7:10am

Mon Aug 15, 6:10am

Mon Aug 15, 5:10am

Mon Aug 15, 4:10am

Mon Aug 15, 3:10am

Mon Aug 15, 2:10am

Mon Aug 15, 1:10am

Mon Aug 15, 12:10am

Sun Aug 14, 11:10pm

Sun Aug 14, 10:10pm

Sun Aug 14, 9:10pm

Sun Aug 14, 8:10pm

Sun Aug 14, 7:10pm

Sun Aug 14, 6:10pm

Sun Aug 14, 5:10pm

Sun Aug 14, 4:10pm

Sun Aug 14, 3:10pm

Sun Aug 14, 2:10pm

Sun Aug 14, 1:10pm

Sun Aug 14, 12:10pm

Sun Aug 14, 11:10am

Sun Aug 14, 10:10am

Sun Aug 14, 9:10am

Sun Aug 14, 8:10am

Sun Aug 14, 7:10am

Sun Aug 14, 6:10am

Sun Aug 14, 5:10am

Sun Aug 14, 4:10am

Sun Aug 14, 3:10am

Sun Aug 14, 2:10am

Sun Aug 14, 1:10am

Sun Aug 14, 12:10am

Sat Aug 13, 11:10pm

Sat Aug 13, 10:10pm

Sat Aug 13, 9:10pm

Sat Aug 13, 8:10pm

Sat Aug 13, 7:10pm

Sat Aug 13, 6:10pm

Sat Aug 13, 5:10pm

Sat Aug 13, 4:10pm

Sat Aug 13, 3:10pm

Sat Aug 13, 2:10pm

Sat Aug 13, 1:10pm

Sat Aug 13, 12:10pm

Sat Aug 13, 11:10am

Sat Aug 13, 10:10am

Sat Aug 13, 9:10am

Sat Aug 13, 8:10am

Sat Aug 13, 7:10am

Sat Aug 13, 6:10am

Sat Aug 13, 5:10am

Sat Aug 13, 4:10am

Sat Aug 13, 3:10am

Sat Aug 13, 2:10am

Sat Aug 13, 1:10am

Sat Aug 13, 12:10am

Fri Aug 12, 11:10pm

Fri Aug 12, 10:10pm

Fri Aug 12, 9:10pm

Fri Aug 12, 8:10pm

Fri Aug 12, 7:10pm

Fri Aug 12, 6:10pm

Fri Aug 12, 5:10pm

Fri Aug 12, 4:10pm

Fri Aug 12, 3:10pm

Fri Aug 12, 2:10pm

Fri Aug 12, 1:10pm

Fri Aug 12, 12:10pm

Fri Aug 12, 11:10am

Fri Aug 12, 10:10am

Fri Aug 12, 9:10am

Fri Aug 12, 8:10am

Fri Aug 12, 7:10am

Fri Aug 12, 6:10am

Fri Aug 12, 5:10am

Fri Aug 12, 4:10am

Fri Aug 12, 3:10am

Fri Aug 12, 2:10am

Fri Aug 12, 1:10am

Fri Aug 12, 12:10am

Thu Aug 11, 11:10pm

Thu Aug 11, 10:10pm

Thu Aug 11, 9:10pm

Thu Aug 11, 8:10pm

Thu Aug 11, 7:10pm

Thu Aug 11, 6:10pm

Thu Aug 11, 5:10pm

Thu Aug 11, 4:10pm

Thu Aug 11, 3:10pm

Thu Aug 11, 2:10pm

Thu Aug 11, 1:10pm

Thu Aug 11, 12:10pm

Thu Aug 11, 11:10am

Thu Aug 11, 10:10am

Thu Aug 11, 8:10am

Thu Aug 11, 7:10am

Thu Aug 11, 6:10am

Thu Aug 11, 5:10am

Thu Aug 11, 4:10am

Thu Aug 11, 3:10am

Thu Aug 11, 2:10am

Thu Aug 11, 1:10am

Thu Aug 11, 12:10am

Wed Aug 10, 11:10pm

Wed Aug 10, 10:10pm

Wed Aug 10, 9:10pm

Wed Aug 10, 8:10pm

Wed Aug 10, 7:10pm

Meta data:

ID: 7e8d50a1-adb7-45f4-9bdb-28c833f350d8
Link: https://api.weather.gov/products/7e8d50a1-adb7-45f4-9bdb-28c833f350d8